スペースウォッチ彗星

125P/Spacewatch (2024)

English version
Home page
Updated on June 5, 2024

---------------------------------------------------------------------

・ プロフィール

・ 写真集

・ 軌道要素

Epoch 2024 Mar. 31.0 TT = JDT 2460400.5
T 2024 Mar. 7.29413 TT                                  Rudenko
q   1.5266926            (2000.0)            P               Q
n   0.17804480     Peri.   87.13954     -0.48878278     +0.86888363
a   3.1293192      Node   153.15014     -0.85337265     -0.45754111
e   0.5121327      Incl.    9.98483     -0.18123606     -0.18893747
P   5.54
>From 870 observations 1991 Sept. 8-2024 Feb. 24, mean residual 0".7.
     Nongravitational parameters A1 = +0.01, A2 = +0.0070.

・ 星図

・ 光度変化

        m1 = 14.0 + 5 logΔ + 13.0 log r          [   ,-55]  (              〜2024年 1月12日)
        m1 =  6.4 + 5 logΔ + 45   log r(t - 20)  [-55,112]  (2024年 1月12日〜2024年 6月27日)
        m1 = 14.0 + 5 logΔ + 13.0 log r          [112,   ]  (2024年 6月27日〜              )

---------------------------------------------------------------------

軌道要素はM.P.E.C. 2024-D126に掲載されたものです。
星図はステラナビゲータ Ver.11 (アストロアーツ) で作成したものです。
光度グラフはComet for Windowsで作成したものです。

---------------------------------------------------------------------

Copyright(C) Seiichi Yoshida (comet@aerith.net). All rights reserved.